Location: Zagrebino
(56.2683°N, 33.7747°E)
Time: 23:37:32
(UTC+00:00)

Daily predictions for brighter satellites

Satellite Brightness Start Highest point End
(mag) Time Altitude Azimuth Time Altitude Azimuth Time Altitude Azimuth
SJ 16-02 1.3 16:25:06 10° SSW 16:29:29 75° ESE 16:33:53 10° NNE
NOSS 3-2 (A) 4.0 16:22:40 10° NW 16:29:46 80° NE 16:37:56 10° ESE
Cosmos 2061 Rocket 4.4 16:25:36 10° SSW 16:31:53 72° WNW 16:38:18 10° N
Cosmos 2084 4.2 16:27:39 10° WSW 16:31:59 54° NNW 16:36:23 10° NE
USA 102 4.0 16:26:43 10° SSE 16:33:16 54° SW 16:35:08 10° NW
SJ-11-01 4.4 16:29:07 10° SSE 16:33:51 90° WSW 16:38:36 10° NNW
Okean 2 Rocket 4.1 16:30:51 10° SE 16:34:32 25° E 16:38:14 10° NNE
Meteor 1-21 4.3 16:30:36 10° NNW 16:36:16 86° WSW 16:41:53 10° S
Okean-O 4.1 16:33:04 10° S 16:37:16 42° W 16:41:32 10° NNW
Ariane Rocket 3.2 16:32:52 10° SE 16:37:47 53° ENE 16:42:44 10° N
Abrixas rocket 4.1 16:36:30 10° SSW 16:38:02 14° SSE 16:39:33 10° SE
Lacrosse 5 rocket 1.6 16:34:27 10° SW 16:38:39 61° SSE 16:43:06 10° ENE
Cosmos 1833 Rocket 4.1 16:34:25 10° NNW 16:39:09 26° NNE 16:43:50 10° E
Cosmos 2227 Rocket 3.3 16:36:18 10° WSW 16:41:46 47° NW 16:47:14 10° NNE
NOSS 2-3 (D) 3.9 16:37:28 10° SW 16:41:58 87° NW 16:47:37 10° NE
USA 116 3.3 16:40:27 10° NNE 16:43:44 65° ESE 16:47:18 10° S
Cosmos 1437 3.3 16:41:03 10° NNW 16:44:01 55° WSW 16:46:57 10° S
GP-B 4.1 16:40:24 10° N 16:44:45 54° W 16:49:04 10° SSW
Resurs 1-3 4.5 16:43:42 10° SE 16:47:36 32° ENE 16:51:31 10° N
SPOT 3 Rocket 4.3 16:43:00 10° ESE 16:47:40 36° ENE 16:52:20 10° N
Cosmos 1300 Rocket 4.3 16:44:12 10° SSE 16:48:05 31° E 16:51:59 10° NNE
MetOp-A 4.4 16:43:18 10° SE 16:48:29 52° ENE 16:53:41 10° N
Cosmos 1867 4.1 16:45:36 10° NW 16:51:00 62° SW 16:56:23 10° SSE
Timation 1 Rocket 4.3 16:45:21 10° SSW 16:51:19 82° SE 16:57:20 10° NE
USA 234 4.5 16:48:38 10° E 16:52:58 18° SE 16:57:17 10° SSE
YAOGAN 1 4.1 16:49:14 10° SSW 16:53:18 39° W 16:57:24 10° NNW
Cosmos 1898 Rocket 3.4 16:48:29 10° SSW 16:53:37 69° ESE 16:58:48 10° NNE
CSL-04 Rocket 4.3 16:48:49 10° S 16:54:12 61° WSW 16:59:41 10° NNW
Cosmos 1536 Rocket 3.8 16:54:29 10° N 16:58:50 51° ENE 17:03:10 10° SSE
Meteor 2-5 Rocket 4.4 16:55:37 10° N 17:00:48 37° ENE 17:05:36 12° SE
NOSS 3-2 (C) 4.0 16:56:43 10° NW 17:03:49 82° NE 17:11:18 13° ESE
USA 229 DEB 4.1 16:57:13 10° WSW 17:03:52 68° NNW 17:11:00 10° NE
USA 229 4.1 16:57:19 10° WSW 17:03:57 69° NNW 17:11:05 10° NE
Terra 4.0 17:02:38 10° ENE 17:04:04 11° NE 17:05:31 10° NNE
Cosmos 858 Rocket 4.5 17:01:44 10° SSW 17:06:55 66° ESE 17:12:06 10° NNE
Cosmos 1626 3.6 17:04:17 10° NNE 17:07:10 21° ENE 17:08:46 16° E
Cosmos 2233 Rocket 4.4 17:01:51 10° SSW 17:08:04 70° WNW 17:14:16 10° N
NOSS 2-3 (C) 4.3 17:04:05 10° WSW 17:08:39 67° NNW 17:14:28 10° NE
Nadezhda 4 Rocket 3.9 17:05:52 10° N 17:12:00 69° ENE 17:18:06 10° SSE
Cosmos 1025 Rocket 3.0 17:08:46 10° NNW 17:13:10 84° ENE 17:17:33 10° SSE
Cosmos 372 Rocket 4.3 17:08:16 10° S 17:13:11 42° ESE 17:18:05 10° NE
Cosmos 1072 Rocket 4.5 17:07:56 10° S 17:14:07 67° E 17:20:26 10° NNE
Cosmos 1782 Rocket 3.8 17:09:43 10° SSW 17:14:08 74° WNW 17:18:37 10° N
CREW DRAGON DEMO-1 DEB 3.8 17:11:50 10° WSW 17:14:38 34° S 17:16:06 21° SE
Cosmos 2151 Rocket 4.0 17:11:23 10° SSE 17:15:34 41° E 17:19:48 10° NNE
NOSS 3-1 (A) 3.8 17:10:06 10° WSW 17:15:57 69° NNW 17:23:00 10° NE
Cosmos 1975 3.7 17:12:37 10° SSW 17:16:38 56° WNW 17:20:41 10° N
CZ-4 R/B 4.2 17:13:31 10° SW 17:16:50 22° W 17:20:08 10° NW
Cosmos 2082 Rocket 3.5 17:14:03 10° NNW 17:18:51 28° NNE 17:22:53 13° E
Cosmos 2034 Rocket 4.2 17:14:13 10° SSE 17:20:22 53° E 17:26:31 10° NNE
USA 186 2.3 17:18:35 10° S 17:21:42 61° W 17:24:57 10° NNW
MOS 1 Rocket 3.2 17:17:37 10° NNE 17:22:15 88° WNW 17:26:38 10° SSW
Cosmos 1937 Rocket 3.4 17:18:09 10° SSW 17:23:25 85° ESE 17:28:39 10° NNE
Cosmos 1125 Rocket 4.4 17:22:02 10° SSE 17:26:25 27° E 17:30:49 10° NE
COSMOS 2406 3.8 17:21:05 10° NNW 17:26:32 44° NE 17:30:13 19° ESE
Cosmos 1805 4.3 17:25:29 22° ESE 17:26:40 26° E 17:29:56 10° NNE
NOSS 8 (H) 4.2 17:25:04 10° SW 17:28:02 54° SE 17:30:29 15° ENE
NOSS 8 (E) 4.0 17:25:04 10° SW 17:28:07 83° SE 17:31:16 10° NE
Meteor 1-24 Rocket 4.1 17:23:12 10° N 17:28:23 43° ENE 17:31:59 19° SE
Cosmos 2297 Rocket 4.2 17:24:35 10° W 17:29:28 29° NNW 17:34:23 10° NNE
OBJECT-B 0.7 17:28:10 18° SSE 17:30:25 71° ENE 17:33:41 10° N
NOSS 2-2 (E) 3.5 17:28:11 10° SSW 17:31:36 43° SE 17:35:39 10° ENE
Cosmos 1674 2.6 17:28:14 10° N 17:32:05 68° ENE 17:34:53 18° SSE
In-Cosmos 22 4.3 17:26:54 10° NNW 17:32:11 71° W 17:37:28 10° S
FREGAT/IRIS 3.1 17:34:35 12° S 17:36:49 48° W 17:39:23 10° NNW
ATLAS 2AS CENTAUR R/B 4.1 17:37:35 19° ESE 17:37:35 19° ESE 17:42:28 10° ENE
SL-14 R/B 4.0 17:35:51 10° N 17:39:29 36° ENE 17:40:43 28° ESE
ERS-1 Rocket 4.2 17:37:23 19° E 17:39:29 25° NE 17:43:34 10° N
NOSS 2-2 (D) 3.5 17:36:41 10° SSW 17:40:03 41° SE 17:43:59 10° ENE
CZ-2C R/B 2.7 17:34:55 10° NNE 17:40:26 69° ESE 17:46:00 10° S
H-2A R/B 3.8 17:37:55 10° SSW 17:42:21 31° W 17:46:54 10° NNW
Cosmos 1733 4.2 17:42:25 27° E 17:42:25 27° E 17:45:42 10° NNE
ARGOS 4.4 17:37:30 10° SSW 17:42:33 41° W 17:47:39 10° NNW
Cosmos 1707 4.3 17:40:36 10° NNW 17:44:08 35° W 17:47:39 10° SSW
Resurs 01 Rocket 1.7 17:41:42 22° SE 17:44:30 64° ENE 17:48:55 10° N
CENTAUR R/B 3.2 17:37:07 10° NW 17:44:51 80° SW 17:51:21 20° SE
Lacrosse 4 Rocket 2.7 17:44:16 10° NNW 17:47:48 27° NNE 17:49:36 20° ENE
Landsat 7 4.3 17:46:54 27° ESE 17:48:59 43° ENE 17:53:30 10° N
Cosmos 1048 Rocket 4.5 17:43:56 10° NNW 17:49:09 61° WSW 17:53:54 13° S
KORONAS-FOTON 3.8 17:45:31 10° NNW 17:49:28 86° W 17:52:09 20° S
SJ-6B 3.7 17:46:53 10° S 17:50:28 45° W 17:54:07 10° NNW
ATLAS 3B R/B 2.8 17:44:25 10° NW 17:51:11 67° NNE 17:55:35 24° ESE
Sich 1 Rocket 4.4 17:47:41 10° SSW 17:52:07 54° WNW 17:56:37 10° N
USA 238 DEB 4.3 17:45:26 10° NW 17:52:24 58° SW 17:58:11 17° SSE
USA 238 4.3 17:45:32 10° NW 17:52:31 58° SW 17:58:16 17° SSE
Cosmos 1634 Rocket 4.3 17:49:46 18° SSE 17:54:05 45° E 17:59:56 10° NNE
Cosmos 1844 4.1 17:49:49 10° S 17:54:59 37° ESE 18:00:08 10° NE
SPOT 1/Viking Rocket 4.0 17:53:08 28° ESE 17:55:22 43° ENE 18:00:15 10° N
ATLAS CENTAUR R/B 3.1 17:54:24 10° WNW 17:57:40 26° NNW 18:00:52 10° NE
NOSS 3-1 (C) 4.4 17:51:48 10° W 17:57:45 50° N 18:04:53 10° ENE
Cosmos 1269 Rocket 4.0 17:52:58 10° NNW 17:58:19 75° ENE 18:01:04 29° SE
Cosmos 2285 Rocket 4.3 17:52:30 10° S 17:58:24 43° ESE 18:04:21 10° NE
Cosmos 1766 3.6 17:58:20 39° ESE 17:58:52 42° E 18:02:38 10° NNE
Cosmos 2263 Rocket 2.7 17:54:22 10° SW 17:59:53 61° NW 18:05:29 10° NNE
ARIANE 5 R/B 2.7 18:00:10 35° SE 18:01:47 58° ENE 18:06:04 10° N
IGS 5A 3.7 18:00:40 37° ESE 18:01:49 49° ENE 18:05:51 10° N
MetOp-B 4.1 17:59:48 27° SE 18:02:46 68° ENE 18:08:07 10° NNW
Cosmos 1627 Rocket 4.5 17:57:42 10° N 18:04:09 81° E 18:08:50 20° SSE
Cosmos 1844 Rocket 2.7 18:01:41 10° S 18:07:03 52° ESE 18:12:29 10° NE
Cosmos 1455 Rocket 4.5 18:08:48 22° ENE 18:08:48 22° ENE 18:11:26 10° NNE
SJ 16-02 3.9 18:05:01 10° W 18:08:34 23° NW 18:12:07 10° N
Cosmos 1464 Rocket 4.4 18:02:41 10° SSW 18:08:47 64° WNW 18:14:58 10° N
Spot 2 Rocket 3.6 18:07:55 34° SE 18:09:55 58° ENE 18:14:53 10° N
Cosmos 1092 Rocket 4.0 18:04:12 10° NNW 18:10:22 80° W 18:15:35 15° S
ISS -1.1 18:08:03 10° SSW 18:08:14 11° SSW 18:08:14 11° SSW
Okean 2 Rocket 3.9 18:07:58 10° SSW 18:12:22 52° WNW 18:16:46 10° N
Abrixas rocket 4.4 18:10:39 10° SW 18:11:15 13° SW 18:11:15 13° SW
Okean 1 Rocket 3.0 18:14:13 25° S 18:16:46 73° E 18:21:17 10° NNE
Lacrosse 5 rocket 1.5 18:13:27 10° W 18:17:51 81° N 18:19:36 37° E
Cosmos 2026 Rocket 4.0 18:11:36 10° NNW 18:17:59 88° W 18:22:22 22° S
Meteor 1-15 Rocket 4.2 18:13:01 10° S 18:18:40 87° ESE 18:24:27 10° NNE
Cosmos 1340 Rocket 3.8 18:19:45 31° ENE 18:19:45 31° ENE 18:22:25 10° NNE
Cosmos 1833 Rocket 2.7 18:18:25 10° NNW 18:24:06 68° NE 18:26:05 40° ESE
NOSS 2-2 (C) 3.1 18:20:53 10° SW 18:24:30 83° SE 18:28:17 13° NE
CZ-2C R/B 3.5 18:20:35 10° NNE 18:25:03 77° ESE 18:27:16 30° S
Cosmos 2298 Rocket 4.0 18:21:35 10° SSW 18:26:56 86° WNW 18:32:19 10° NNE
SPOT 3 Rocket 4.2 18:22:58 16° S 18:26:57 51° W 18:32:00 10° NNW
Cosmos 1461 4.4 18:24:18 10° NW 18:28:40 34° NNE 18:30:44 24° ENE
Cosmos 2251 Rocket 3.9 18:25:42 10° NNW 18:30:58 50° NE 18:32:21 40° E
USA 245 4.1 18:33:53 29° N 18:33:53 29° N 18:35:14 10° NNW
USA 234 3.4 18:31:49 15° ENE 18:37:11 48° SE 18:43:29 10° SW
H-2A R/B 4.1 18:33:46 10° NNE 18:37:01 41° ENE 18:37:01 41° ENE
Cosmos 2279 Rocket 4.0 18:36:18 39° SSE 18:38:26 57° E 18:44:34 10° NNE
Cosmos 2142 Rocket 4.4 18:36:37 34° SSE 18:39:26 66° E 18:45:37 10° NNE
Terra 2.3 18:40:19 42° ENE 18:40:43 43° ENE 18:45:14 10° N
Cosmos 1892 Rocket 3.5 18:37:48 10° NNW 18:42:10 80° W 18:42:56 59° S
Cosmos 1626 2.8 18:39:05 10° NNW 18:42:42 50° W 18:43:18 44° SW
Meteor 2-5 Rocket 4.4 18:39:00 10° NNW 18:44:26 51° W 18:48:05 21° SSW
CARTOSAT-1 3.4 18:52:23 73° ENE 18:52:25 73° ENE 18:56:46 10° NNW
SPOT 5 2.9 19:00:55 65° SE 19:01:38 79° ENE 19:06:59 10° NNW
Cosmos 1805 4.5 19:00:43 25° SW 19:02:29 41° WNW 19:06:14 10° N
OBJECT-B 3.8 19:01:50 10° WSW 19:03:13 12° W 19:04:37 10° WNW
Cosmos 2082 Rocket 2.1 18:58:09 10° NW 19:03:49 77° NE 19:04:43 62° ESE
Meteor 1-22 Rocket 4.3 19:00:49 29° SSW 19:04:01 83° WNW 19:10:08 10° NNE
Cosmos 1125 Rocket 3.8 19:02:48 10° SW 19:08:06 69° WNW 19:13:27 10° NNE
Okean 1-7 Rocket 3.9 19:04:14 10° NNW 19:08:47 62° W 19:09:14 58° SW
Exosat Rocket 3.6 19:04:10 10° SW 19:09:27 75° NW 19:14:32 10° NNE
COSMOS 2406 3.6 19:05:30 10° NW 19:11:03 54° WSW 19:12:17 45° SSW
SME Rocket 4.4 19:11:13 10° NNE 19:16:39 41° ENE 19:16:39 41° ENE
Cosmos 1726 4.4 19:20:00 18° NNE 19:20:00 18° NNE 19:21:07 10° NNE
ERS-1 Rocket 2.9 19:17:24 68° SSW 19:17:52 74° WSW 19:22:56 10° NNW
Cosmos 1733 4.5 19:17:21 35° W 19:17:59 38° WNW 19:21:37 10° N
Cosmos 2266 Rocket 3.8 19:13:51 10° NNW 19:19:58 89° E 19:21:01 64° SSE
Cosmos 614 Rocket 4.2 19:15:22 10° NNW 19:20:31 57° NE 19:20:34 57° ENE
Cosmos 2098 Rocket 4.2 19:13:59 10° NNW 19:21:22 78° W 19:23:23 49° S
Resurs 01 Rocket 3.7 19:19:17 16° SW 19:21:23 22° W 19:24:53 10° NW
NOSS 2-2 (E) 4.3 19:18:26 10° W 19:22:09 48° NNW 19:26:51 10° NE
Meteor 2-21 4.4 19:16:22 10° N 19:22:34 68° ENE 19:23:17 62° ESE
Cosmos 1809 Rocket 4.3 19:17:15 10° N 19:23:29 76° ENE 19:24:18 66° SE
Cosmos 1602 Rocket 3.9 19:19:35 10° N 19:23:14 60° N 19:23:14 60° N
Cosmos 1953 4.2 19:28:08 23° NNE 19:28:08 23° NNE 19:29:48 10° NNE
Cosmos 1655 Rocket 4.1 19:19:40 10° NNW 19:25:54 70° W 19:27:33 50° SSW
Meteor 1-21 Rocket 4.1 19:20:18 10° NNW 19:26:02 85° WSW 19:26:43 71° S
Lacrosse 4 Rocket 2.1 19:22:49 10° NW 19:25:54 50° NW 19:25:54 50° NW
ATLAS 2AS CENTAUR R/B 3.0 19:24:48 45° S 19:27:00 58° SE 19:34:37 10° NE
NOSS 2-2 (D) 4.3 19:26:53 10° W 19:30:34 48° NNW 19:35:10 10° NE
SPOT 1/Viking Rocket 4.4 19:33:46 36° SW 19:34:51 41° W 19:39:45 10° NNW
CENTAUR R/B 4.3 19:28:10 10° WNW 19:34:59 31° WSW 19:38:32 23° SSW
Cosmos 1470 4.1 19:38:04 38° NNW 19:38:04 38° NNW 19:40:41 10° N
Nadezhda 2 Rocket 4.5 19:30:51 10° N 19:36:56 62° ENE 19:37:13 61° E
ATLAS CENTAUR R/B 3.2 19:34:26 10° NW 19:37:30 23° N 19:37:31 23° N
Cosmos 1626 Rocket 4.1 19:33:50 10° NNW 19:37:37 56° WNW 19:37:37 56° WNW
ARIANE 5 R/B 4.4 19:37:43 22° WSW 19:38:35 23° W 19:42:06 10° NW
Cosmos 2278 Rocket 3.0 19:40:44 38° ENE 19:40:44 38° ENE 19:44:22 10° NE
Cosmos 1844 4.2 19:33:21 10° SW 19:38:58 59° NW 19:44:33 10° NNE
ATLAS 3B R/B 3.0 19:35:17 10° NW 19:41:50 52° SW 19:42:49 48° SSW
Cosmos 2263 Rocket 4.4 19:40:25 10° WNW 19:44:57 24° NNW 19:49:31 10° NNE
Cosmos 1455 Rocket 3.8 19:45:54 51° NW 19:45:54 51° NW 19:49:47 10° N
Meteor 2-10 4.1 19:48:52 83° N 19:48:52 83° N 19:54:08 10° NNE
Cosmos 909 Rocket 4.2 19:42:59 10° NW 19:49:33 59° SW 19:50:00 57° SW
NOSS 3-1 (C) 4.4 19:43:21 10° WNW 19:49:49 53° NNE 19:54:08 26° E
Cosmos 1844 Rocket 3.7 19:45:46 10° WSW 19:51:06 45° NW 19:56:30 10° NNE
Cosmos 2084 4.5 19:48:07 10° NW 19:51:49 45° N 19:51:49 45° N
Meteor 2-14 Rocket 4.3 19:47:31 10° NNW 19:53:41 85° W 19:54:01 80° SSW
Meteor 1-11 4.2 19:51:31 10° NNW 19:56:45 72° NNE 19:56:45 72° NNE
Lacrosse 5 rocket 2.9 19:52:41 10° WNW 19:55:13 34° W 19:55:13 34° W
Meteor 2-16 Rocket 4.3 20:00:10 10° NNW 20:06:18 86° NE 20:06:18 86° NE
Cosmos 1833 Rocket 3.9 20:02:45 10° NW 20:07:41 31° WSW 20:07:46 31° WSW
Cosmos 1461 4.0 20:03:34 10° NW 20:07:04 49° NW 20:07:04 49° NW
Cosmos 407 Rocket 3.8 20:05:42 10° NNW 20:09:56 61° NNW 20:09:56 61° NNW
Cosmos 1745 Rocket 4.3 20:06:19 10° N 20:12:07 54° ENE 20:12:07 54° ENE
Terra 3.1 20:19:13 35° WNW 20:19:13 35° WNW 20:23:00 10° NNW
USA 234 3.1 20:14:05 10° ENE 20:20:40 85° SSE 20:27:15 10° WSW
Cosmos 1244 Rocket 4.4 20:14:26 10° NNW 20:20:31 81° WNW 20:20:31 81° WNW
Cosmos 1140 Rocket 4.0 20:17:38 10° NNW 20:21:42 56° NNW 20:21:42 56° NNW
MOS 1-B Rocket 4.3 20:22:25 10° NNE 20:29:04 89° E 20:29:46 76° SSW
Meteor 1-16 Rocket 4.4 20:31:08 73° NW 20:31:08 73° NW 20:36:48 10° NNE
ALOS 2 4.1 20:33:26 34° N 20:33:26 34° N 20:36:03 10° N
Cosmos 1709 Rocket 4.3 20:41:18 10° N 20:46:53 55° NE 20:46:53 55° NE
Cosmos 2082 Rocket 3.7 20:42:49 10° NW 20:46:33 26° W 20:46:33 26° W
USA 229 DEB 4.1 20:40:51 10° WNW 20:47:50 63° NNE 20:49:59 45° E
USA 229 4.1 20:40:57 10° WNW 20:47:56 62° NNE 20:50:06 45° E
COSMOS 2455 3.7 20:52:44 41° ENE 20:52:44 41° ENE 20:56:37 10° NE
Cosmos 1943 Rocket 3.9 20:54:15 23° ENE 20:54:15 23° ENE 20:56:39 10° NE
S3M 4.4 20:53:53 55° NE 20:53:53 55° NE 20:58:59 10° NNE
Aureole 1 Rocket 4.3 20:47:31 10° NNW 20:52:04 50° NNW 20:52:04 50° NNW
NOSS 3-4 (A) 3.6 20:54:06 68° WNW 20:54:32 71° NNW 21:01:14 10° NE
NOSS 3-4 (C) 3.6 20:54:16 69° NW 20:54:38 71° NNW 21:01:20 10° NE
NOSS 3-1 (A) 4.2 20:53:07 10° WNW 20:59:51 62° NNE 21:02:58 37° E
Cosmos 2297 Rocket 4.2 20:56:55 10° NNW 21:01:30 24° NNE 21:05:21 13° ENE
CZ-4C R/B 3.4 21:16:51 36° ENE 21:16:51 36° ENE 21:20:44 10° NE
Cosmos 2369 Rocket 3.8 21:17:31 26° ENE 21:17:31 26° ENE 21:20:17 10° NE
ATLAS CENTAUR R/B 4.2 21:13:29 10° NW 21:13:41 11° NW 21:13:41 11° NW
ATLAS 2AS CENTAUR R/B 3.2 21:11:59 19° WSW 21:18:07 68° NNW 21:25:48 10° NE
Thor Agena Rocket 4.4 21:12:57 10° NNE 21:16:46 49° NNE 21:16:46 49° NNE
Cosmos 2278 Rocket 3.1 21:22:33 41° WNW 21:23:09 43° NW 21:28:33 10° NNE
NOSS 3-1 (C) 3.8 21:34:18 10° NW 21:41:23 89° SSW 21:41:28 88° S
Cosmos 2056 Rocket 4.5 21:43:24 44° NNE 21:43:24 44° NNE 21:47:00 10° NNE
Cosmos 1553 Rocket 4.5 21:45:43 53° WNW 21:45:43 53° WNW 21:51:52 10° N
Cosmos 2227 Rocket 3.7 21:54:03 10° NNW 21:59:10 33° NE 22:01:46 23° E
Timation 2 Rocket 4.3 21:57:33 10° NW 22:03:38 58° NE 22:04:09 56° ENE
USA 234 3.2 21:57:12 10° E 22:06:56 34° W 22:10:21 10° W
Meteor 2-3 Rocket 4.2 22:01:55 10° NNW 22:06:33 56° NNE 22:06:33 56° NNE
Cosmos 2219 4.2 22:07:33 10° NNW 22:13:00 44° NE 22:14:03 40° ENE
Cosmos 2154 Rocket 4.2 22:09:11 10° N 22:15:13 65° ENE 22:15:13 65° ENE
Cosmos 2074 Rocket 4.1 22:20:43 10° NNW 22:26:18 69° NW 22:26:18 69° NW
SL-16 R/B 2.9 22:27:14 54° E 22:27:54 57° ENE 22:33:56 10° NNW
Cosmos 968 Rocket 4.3 22:23:41 10° NNW 22:28:22 50° NNE 22:28:22 50° NNE
Cosmos 1943 Rocket 2.7 22:35:46 56° NNW 22:35:46 56° NNW 22:40:42 10° NNE
COSMOS 2455 3.7 22:35:51 41° WNW 22:36:55 45° NNW 22:42:44 10° NE
USA 229 DEB 4.2 22:31:57 10° NW 22:37:22 51° W 22:37:22 51° W
USA 229 4.2 22:32:03 10° NW 22:37:28 51° W 22:37:28 51° W
Cosmos 1656 Rocket 4.2 22:40:20 55° NE 22:40:20 55° NE 22:44:42 10° NE
CZ-2D R/B 3.5 22:34:58 10° NNE 22:39:26 29° E 22:39:26 29° E
ATLAS 5 CENTAUR R/B 4.0 22:44:53 15° E 22:44:53 15° E 22:46:11 10° ENE
Meteor 2-10 Rocket 4.3 22:43:49 50° NW 22:43:49 50° NW 22:48:51 10° N
NOSS 3-4 (A) 4.5 22:41:29 16° WNW 22:46:19 46° N 22:53:01 10° ENE
NOSS 3-4 (C) 4.5 22:41:40 17° WNW 22:46:25 46° N 22:53:07 10° ENE
Cosmos 2297 Rocket 2.6 22:41:04 10° NNW 22:46:42 59° NE 22:47:06 58° ENE
NOSS 3-1 (A) 4.0 22:44:02 10° NW 22:50:19 63° W 22:50:19 63° W
Cosmos 2263 4.4 22:53:55 71° N 22:53:55 71° N 22:59:12 10° NE
Resurs 1-4 Rocket 3.2 22:49:09 10° NNE 22:53:50 36° E 22:53:50 36° E
Nadezhda 1 Rocket 3.9 22:58:04 78° E 22:58:04 78° E 23:04:02 10° NNE
Cosmos 2369 Rocket 2.5 22:59:18 58° NNW 22:59:18 58° NNW 23:04:38 10° NNE
CZ-4C R/B 2.9 23:02:00 46° WNW 23:03:12 54° NNW 23:09:57 10° ENE
Cosmos 2278 Rocket 4.4 23:04:31 10° WNW 23:08:43 21° NNW 23:12:57 10° NNE
ATLAS 2AS CENTAUR R/B 3.7 23:02:33 10° WNW 23:10:14 50° N 23:17:30 10° ENE
SJ 16-02 4.5 23:08:20 10° N 23:10:35 14° NNE 23:12:52 10° ENE
Cosmos 1503 Rocket 4.3 23:08:09 10° NNW 23:12:56 65° NNE 23:12:56 65° NNE
NOSS 2-2 (D) 4.5 23:09:36 16° NW 23:13:26 62° NNE 23:19:54 10° ESE
Cosmos 2263 Rocket 4.1 23:11:55 10° NNW 23:16:44 28° NNE 23:21:33 10° E
Helios 1B rocket 3.9 23:16:15 10° N 23:18:47 35° N 23:18:47 35° N
ATLAS CENTAUR R/B 4.4 23:07:31 21° WSW 23:22:09 86° SSE 23:29:30 10° ENE
IRAS Rocket 4.2 23:22:14 87° NNE 23:22:14 87° NNE 23:27:49 10° NNW
SL-8 Rocket 3.9 23:20:31 10° N 23:26:51 85° ENE 23:27:37 71° SSE
Cosmos 2221 3.4 23:29:14 47° NNE 23:29:14 47° NNE 23:32:23 10° NNE
COBE Rocket 4.2 23:31:38 62° NNW 23:31:38 62° NNW 23:35:57 10° NNW
Cosmos 2218 Rocket 4.0 23:31:37 10° NNW 23:38:03 87° ENE 23:39:21 60° SSE
Meteor 2-2 Rocket 4.2 23:40:08 72° SSE 23:40:36 78° E 23:46:27 10° NNE
Cosmos 2366 rocket 3.9 23:34:19 10° NNW 23:40:39 86° E 23:41:56 60° SSE
Cosmos 1842 Rocket 4.2 23:43:34 54° N 23:43:34 54° N 23:47:08 10° N
Sich 1 3.7 23:38:34 10° N 23:42:00 52° NNE 23:42:00 52° NNE
Cosmos 2227 Rocket 2.1 23:38:08 10° NW 23:43:30 76° WNW 23:43:30 76° WNW
Cosmos 1452 Rocket 4.5 23:43:44 35° NW 23:44:01 35° NW 23:48:52 10° NNE
USA 234 3.1 23:40:29 10° ESE 23:47:00 70° SSW 23:50:26 30° WNW
Cosmos 292 Rocket 3.9 23:48:09 72° N 23:48:09 72° N 23:52:29 10° NNE
Meteor 2-12 Rocket 4.4 23:47:30 10° NNW 23:53:27 60° W 23:53:28 60° W
Lacrosse 5 4.0 23:53:36 14° SE 23:53:59 14° SE 23:56:37 10° E
